Weather in Sredniy Egorlyk

Russia / Rostov Oblast     46°22′00″N   40°49′07″E
temp.,
°C
wind,
m/s
gust,
m/s
humid.,
%
clouds,
%
prec.,
mm/h
press.,
hPa
HPBL,
m
4 march, thu
thu400:000w47850 0.0 1025213
03:000w36860 0.0 1026173
06:00−1wsw34840 0.0 1026128
09:00+2wsw58650 0.0 1025491
12:00+5wsw69500 0.0 10241026
15:00+7wsw711530 0.0 10221302
18:00+4wsw410690 0.0 1020251
21:00+3sw715812 0.0 1020536
5 march, fri
fri500:00+2wsw717800 0.0 1019706
03:00+2wsw7178025 0.0 1019656
06:00+1sw717800 0.0 1018637
09:00+4wsw916673 0.0 1018792
12:00+8wsw8125549 0.0 1017890
15:00+10wsw7115172 0.0 10161125
18:00+7sw366688 0.0 1016133
21:00+5sw5166857 0.0 1017571
6 march, sat
sat600:00+3ssw516712 0.0 1016489
03:00+3ssw4157250 0.0 1015440
06:00+3sw51871100 0.0 1014592
09:00+7wsw9186193 0.0 1014862
12:00+11wsw10156187 0.0 10131189
15:00+11wsw10156693 0.4 10121552
18:00+4nw91291100 0.6 1013654
21:00+2nw61084100 1.8 1017853
7 march, sun
sun700:000nw81170100 0.4 10201041
03:00−2nw6105980 0.4 10231274
06:00−2wnw69520 0.0 10251297
09:00−1wnw57460 0.0 10271172
12:00+1w57400 0.0 10261394
15:00+2w57410 0.0 10241453
18:000wsw510530 0.0 1023457
21:00−1w411610 0.0 1023599
8 march, mon
mon800:00−1wsw512620 0.0 1022664
03:000sw612622 0.0 1021526
06:00−1sw612770 0.0 1020484
09:00+2wsw912642 0.0 10191123
12:00+5wsw8115364 0.0 10181438
15:00+5wsw8105777 0.0 10171523
18:00+3wsw4106684 0.0 1017331
21:00+1sw4118383 0.0 1018332